Regional Weather Roundup
Issued by NWS

Home | Current Version | Previous Version | Text Only | Print | Product List | Glossary Off
Versions: 1 2 3 4 5 6 7 8 9 10 11 12 13 14 15 16 17 18 19 20 21 22 23 24 25 26 27 28 29 30 31 32 33 34 35 36 37 38 39 40 41 42 43 44 45 46 47 48 49 50

746
ASUS43 KFSD 240910
RWRSD

WEATHER ROUNDUP FOR SOUTH DAKOTA
NATIONAL WEATHER SERVICE SIOUX FALLS SD
400 AM CDT WED MAY 24 2017

NOTE: "FAIR" INDICATES FEW OR NO CLOUDS BELOW 12,000 FEET WITH NO
SIGNIFICANT WEATHER AND/OR OBSTRUCTIONS TO VISIBILITY.


SDZ001>005-009-010-012>017-241000-
NORTHWEST AND NORTH CENTRAL SOUTH DAKOTA

CITY           SKY/WX    TMP DP  RH WIND       PRES   REMARKS
BUFFALO          N/A     43  37  79 SE13      29.75F
FAITH            N/A     38  36  92 S13       29.87F
MOBRIDGE       PTCLDY    40  37  89 N3        29.86F FOG
$$

SDZ012>016-024>037-041>051-057-063-072>074-241000-
SOUTHWEST AND SOUTH CENTRAL SOUTH DAKOTA

CITY           SKY/WX    TMP DP  RH WIND       PRES   REMARKS
RAPID CTY ARPT CLEAR     38  33  82 SE5       29.88F
PIERRE         CLEAR     36  34  92 CALM      29.87F
CUSTER         CLOUDY    31  26  82 CALM      29.90F
ELLSWORTH AFB  CLEAR     42  36  80 S8        29.86F
PHILIP         CLOUDY    31  30  96 W5        29.89F WCI  26
PINE RIDGE     CLEAR     35  34  96 CALM      29.90F
SPEARFISH      FAIR      39  34  81 CALM      29.83F
WINNER         FAIR      39  37  92 SW7       29.89F
$$

SDZ004>011-016>023-039-040-241000-
NORTHEAST SOUTH DAKOTA

CITY           SKY/WX    TMP DP  RH WIND       PRES   REMARKS
ABERDEEN       MOCLDY    39  36  89 N3        29.87F
WATERTOWN      CLOUDY    44  43  96 N3        29.85S
BROOKINGS      CLEAR     41  40  96 N5        29.84S
SISSETON         N/A     43  42  97 NW5       29.86F
$$

SDZ017-020-022-023-036>040-048>070-241000-
SOUTHEAST SOUTH DAKOTA

CITY           SKY/WX    TMP DP  RH WIND       PRES   REMARKS
SIOUX FALLS    CLEAR     45  44  97 N7        29.82F
HURON          CLEAR     35  35 100 NW5       29.87F
CHAMBERLAIN    CLEAR     39  39  99 CALM      29.88F
MITCHELL       CLEAR     40  39  97 NW7       29.86F
YANKTON        CLEAR     43  42  97 NW10      29.84F
$$

ABBREVIATIONS USED IN REMARKS
   TC - TEMPERATURE IN CELSIUS
  WCI - WIND CHILL INDEX
   HX - HEAT INDEX
  VSB - VISIBILITY





USA.gov is the U.S. government's official web portal to all federal, state and local government web resources and services.